sat.trackr.live / text

‹ back to catalog

FLOCK 4H-29

NORAD 66732 · 2025-276BU

PAYLOAD ACTIVE UNKNOWN

§ Identity

Operator
Country
US
Launch date
2025-11-28
Launch site
AFWTR
Launch vehicle
Mass (kg)
RCS (m²)

Purposes: earth_obs

External: N2YO · Heavens-Above · Gunter

§ Orbital elements

Epoch: 2026-09-20T03:19:32.080800Z

Period
94.69 min
Inclination
97.4093°
Eccentricity
0.0004527
Mean motion
15.20757594 rev/d
Perigee alt
500.4 km
Apogee alt
506.7 km
Semi-major
6,881.7 km
B*
2.1995e-4
RAAN
334.9454°
Arg perigee
65.6249°
Mean anomaly
294.5459°
Rev number
4,484

§ Raw data

FLOCK 4H-291 66732U 25276BU  26263.13856575  .00004775  00000+0  21995-3 0  99962 66732  97.4093 334.9454 0004527  65.6249 294.5459 15.20757594 44843

JSON: /api/v1/satellites/66732 · /tle

For live sub-satellite position, see the globe view (requires WebGL).

§ Visibility from observer

Set your observer location to see the next 7 days of passes ≥ 10°. The values pass through the URL so the page stays shareable.

No JS? Fill the form by hand. The geolocation button needs JavaScript.